TimeCDT,TemperatureF,Dew PointF,Humidity,Sea Level PressureIn,VisibilityMPH,Wind Direction,Wind SpeedMPH,Gust SpeedMPH,PrecipitationIn,Events,Conditions,WindDirDegrees,DateUTC
12:32 AM,57.2,57.2,100,30.09,2.5,Calm,Calm,-,N/A,,Clear,0,2013-08-17 05:32:00
12:53 AM,57.9,57.0,97,30.08,2.5,Calm,Calm,-,N/A,,Clear,0,2013-08-17 05:53:00
1:03 AM,57.2,57.2,100,30.09,3.0,Calm,Calm,-,N/A,,Clear,0,2013-08-17 06:03:00
1:10 AM,57.2,57.2,100,30.09,2.5,Calm,Calm,-,N/A,,Clear,0,2013-08-17 06:10:00
1:53 AM,57.9,57.0,97,30.07,3.0,Calm,Calm,-,N/A,,Scattered Clouds,0,2013-08-17 06:53:00
2:37 AM,57.2,57.2,100,30.08,2.5,Calm,Calm,-,N/A,,Scattered Clouds,0,2013-08-17 07:37:00
2:48 AM,57.2,57.2,100,30.08,3.0,Calm,Calm,-,N/A,,Partly Cloudy,0,2013-08-17 07:48:00
2:53 AM,57.9,57.0,97,30.06,3.0,Calm,Calm,-,N/A,,Partly Cloudy,0,2013-08-17 07:53:00
3:04 AM,57.2,57.2,100,30.08,2.5,Calm,Calm,-,N/A,,Partly Cloudy,0,2013-08-17 08:04:00
3:53 AM,57.0,55.9,96,30.06,2.0,Calm,Calm,-,N/A,,Clear,0,2013-08-17 08:53:00
4:53 AM,55.9,55.9,100,30.05,2.5,Calm,Calm,-,N/A,,Clear,0,2013-08-17 09:53:00
5:53 AM,55.9,55.0,97,30.06,2.5,Calm,Calm,-,N/A,,Clear,0,2013-08-17 10:53:00
6:44 AM,55.4,53.6,94,30.08,1.5,Calm,Calm,-,N/A,,Clear,0,2013-08-17 11:44:00
6:53 AM,55.0,54.0,96,30.06,1.2,Calm,Calm,-,N/A,,Clear,0,2013-08-17 11:53:00
7:16 AM,55.4,55.4,100,30.08,2.0,Calm,Calm,-,N/A,,Clear,0,2013-08-17 12:16:00
7:53 AM,60.1,59.0,96,30.07,3.0,Calm,Calm,-,N/A,,Clear,0,2013-08-17 12:53:00
8:53 AM,64.9,60.1,84,30.08,10.0,Calm,Calm,-,N/A,,Clear,0,2013-08-17 13:53:00
9:53 AM,69.1,62.1,78,30.08,10.0,Calm,Calm,-,N/A,,Clear,0,2013-08-17 14:53:00
10:53 AM,73.9,63.0,68,30.08,10.0,Variable,4.6,-,N/A,,Mostly Cloudy,0,2013-08-17 15:53:00
11:00 AM,73.4,62.6,69,30.10,10.0,Variable,4.6,-,N/A,,Scattered Clouds,0,2013-08-17 16:00:00
11:15 AM,73.4,62.6,69,30.10,10.0,Variable,3.5,-,N/A,,Mostly Cloudy,0,2013-08-17 16:15:00
11:23 AM,75.2,64.4,69,30.10,10.0,NNE,5.8,-,N/A,,Scattered Clouds,30,2013-08-17 16:23:00
11:53 AM,75.0,64.0,69,30.08,10.0,Calm,Calm,-,N/A,,Mostly Cloudy,0,2013-08-17 16:53:00
12:53 PM,78.1,64.9,64,30.07,10.0,Calm,Calm,-,N/A,,Scattered Clouds,0,2013-08-17 17:53:00
1:53 PM,80.1,64.0,58,30.04,10.0,Calm,Calm,-,N/A,,Scattered Clouds,0,2013-08-17 18:53:00
2:53 PM,81.0,64.0,56,30.03,10.0,Variable,4.6,-,N/A,,Scattered Clouds,0,2013-08-17 19:53:00
3:53 PM,81.0,64.0,56,30.01,10.0,Calm,Calm,-,N/A,,Partly Cloudy,0,2013-08-17 20:53:00
4:53 PM,80.1,63.0,56,30.01,10.0,Variable,3.5,-,N/A,,Clear,0,2013-08-17 21:53:00
5:53 PM,80.1,63.0,56,30.01,10.0,Calm,Calm,-,N/A,,Clear,0,2013-08-17 22:53:00
6:53 PM,79.0,64.9,62,30.00,10.0,Calm,Calm,-,N/A,,Clear,0,2013-08-17 23:53:00
7:53 PM,73.0,66.9,81,30.01,8.0,Calm,Calm,-,N/A,,Clear,0,2013-08-18 00:53:00
8:53 PM,69.1,66.9,93,30.01,6.0,Calm,Calm,-,N/A,,Clear,0,2013-08-18 01:53:00
9:53 PM,68.0,66.0,93,30.03,3.0,Calm,Calm,-,N/A,,Clear,0,2013-08-18 02:53:00
10:30 PM,66.2,64.4,94,30.06,2.5,Calm,Calm,-,N/A,,Clear,0,2013-08-18 03:30:00
10:53 PM,66.0,64.9,96,30.04,3.0,Calm,Calm,-,N/A,,Scattered Clouds,0,2013-08-18 03:53:00
11:04 PM,66.2,64.4,94,30.06,2.5,Calm,Calm,-,N/A,,Scattered Clouds,0,2013-08-18 04:04:00
11:53 PM,64.9,64.0,97,30.04,2.0,Calm,Calm,-,N/A,,Clear,0,2013-08-18 04:53:00